Starlink 11129

operational
NORAD ID: 60038 Int'l Des: 2024-112 Owner: SPXS Country: US Constellation: starlink
LEOCIRCULAR

About Starlink 11129

Description loading...

Live Position

Loading 3D Globe...

Upcoming Passes

Altitude History

Altitude vs Time

uPlot chart will show altitude changes over time

Two-Line Element Set

1 60038U 24112A 25354.02097317 -.00002080 00000-0 -12303-4 0 9990
2 60038 53.1595 299.3379 0001219 88.5573 271.5585 15.69722743 88463
Epoch: Dec 20, 2025 • Age: 26 hours

Current Status

Altitude 377.8 km
Velocity 7.68 km/s
Sub-Earth Point -50.30°S, 57.58°E
Launch Date Jun 8, 2024
Age 1.5 years
Type internet

Technical Details

Classification Payload
Mass 960.00 kg
Dry Mass 910.00 kg
Total Mass 960.00 kg
Length 0.30 m
Diameter 4.10 m
Span 29.00 m
Shape Box + pan
Manufacturer SPXS
Bus Type Starlink V2MD
Phase Status In Orbit
Owner/State SPXS/US

Large Constellations

Loading constellations...